Hourly Weather Barkowo

Today, 8 May, Saturday

Time Temperature Precipitation Wind Pressure Humidity
00:00 +1°C° 0 mm 4 mps 754 mmHg 93%
01:00 +1°C° 0 mm 4 mps 754 mmHg 95%
02:00 0°C° 0 mm 4 mps 754 mmHg 95%
03:00 0°C° 0 mm 4 mps 755 mmHg 95%
04:00 0°C° 0 mm 4 mps 755 mmHg 95%
05:00 +1°C° 0 mm 4 mps 755 mmHg 89%
06:00 +4°C° 0 mm 4 mps 756 mmHg 83%
07:00 +5°C° 0 mm 5 mps 756 mmHg 77%
08:00 +6°C° 0 mm 5 mps 756 mmHg 70%
09:00 +8°C° 0 mm 5 mps 756 mmHg 62%
10:00 +10°C° 0 mm 6 mps 756 mmHg 55%
11:00 +10°C° 0 mm 5 mps 756 mmHg 52%
12:00 +12°C° 0 mm 5 mps 756 mmHg 49%
13:00 +13°C° 0 mm 5 mps 755 mmHg 46%
14:00 +13°C° 0 mm 4 mps 755 mmHg 47%
15:00 +13°C° 0 mm 4 mps 755 mmHg 49%
16:00 +13°C° 0 mm 4 mps 755 mmHg 50%
17:00 +11°C° 0 mm 3 mps 755 mmHg 56%
18:00 +10°C° 0 mm 2 mps 755 mmHg 62%
19:00 +9°C° 0 mm 2 mps 755 mmHg 67%
20:00 +8°C° 0 mm 2 mps 755 mmHg 69%
21:00 +7°C° 0 mm 2 mps 755 mmHg 71%
22:00 +5°C° 0 mm 3 mps 755 mmHg 73%
23:00 +5°C° 0 mm 3 mps 755 mmHg 73%

Tomorrow, 9 May, Sunday

Time Temperature Precipitation Wind Pressure Humidity
00:00 +5°C° 0 mm 4 mps 755 mmHg 74%
01:00 +5°C° 0 mm 4 mps 755 mmHg 75%
02:00 +5°C° 0 mm 4 mps 755 mmHg 71%
03:00 +6°C° 0 mm 4 mps 754 mmHg 67%
04:00 +6°C° 0 mm 5 mps 754 mmHg 63%
05:00 +7°C° 0 mm 5 mps 754 mmHg 65%
06:00 +8°C° 0 mm 5 mps 754 mmHg 68%
07:00 +9°C° 0 mm 5 mps 754 mmHg 70%
08:00 +12°C° 0 mm 5 mps 753 mmHg 66%
09:00 +14°C° 0 mm 5 mps 753 mmHg 62%
10:00 +17°C° 0 mm 5 mps 753 mmHg 57%
11:00 +19°C° 0 mm 5 mps 753 mmHg 56%
12:00 +20°C° 0 mm 6 mps 753 mmHg 55%
13:00 +21°C° 0 mm 6 mps 753 mmHg 54%
14:00 +21°C° 0 mm 6 mps 752 mmHg 56%
15:00 +21°C° 0 mm 6 mps 752 mmHg 59%
16:00 +21°C° 0 mm 6 mps 752 mmHg 62%
17:00 +20°C° 0 mm 5 mps 752 mmHg 66%
18:00 +17°C° 0 mm 5 mps 752 mmHg 71%
19:00 +15°C° 0 mm 4 mps 752 mmHg 75%
20:00 +14°C° 0 mm 4 mps 752 mmHg 75%
21:00 +13°C° 0 mm 4 mps 752 mmHg 75%
22:00 +12°C° 0 mm 4 mps 752 mmHg 74%
23:00 +11°C° 0 mm 4 mps 752 mmHg 75%

Day after tomorrow, 10 May, Monday

Time Temperature Precipitation Wind Pressure Humidity
00:00 +11°C° 0 mm 4 mps 751 mmHg 75%
01:00 +10°C° 0 mm 4 mps 751 mmHg 76%
02:00 +10°C° 0 mm 4 mps 751 mmHg 74%
03:00 +10°C° 0 mm 4 mps 751 mmHg 73%
04:00 +8°C° 0 mm 4 mps 751 mmHg 71%
05:00 +10°C° 0 mm 5 mps 751 mmHg 70%
06:00 +11°C° 0 mm 6 mps 750 mmHg 69%
07:00 +12°C° 0 mm 7 mps 750 mmHg 67%
08:00 +15°C° 0 mm 7 mps 750 mmHg 65%
09:00 +17°C° 0 mm 7 mps 750 mmHg 62%
10:00 +18°C° 0 mm 7 mps 750 mmHg 59%
11:00 +20°C° 0 mm 7 mps 750 mmHg 58%
12:00 +21°C° 0 mm 7 mps 749 mmHg 57%
13:00 +22°C° 0 mm 6 mps 749 mmHg 56%
14:00 +23°C° 0 mm 6 mps 750 mmHg 59%
15:00 +23°C° 0 mm 6 mps 750 mmHg 61%
16:00 +23°C° 0 mm 6 mps 750 mmHg 64%
17:00 +21°C° 0 mm 5 mps 750 mmHg 70%
18:00 +20°C° 0 mm 4 mps 750 mmHg 76%
19:00 +18°C° 0 mm 4 mps 750 mmHg 82%
20:00 +17°C° 0 mm 3 mps 750 mmHg 84%
21:00 +16°C° 0 mm 3 mps 750 mmHg 86%
22:00 +14°C° 0 mm 3 mps 750 mmHg 88%
23:00 +14°C° 0 mm 3 mps 750 mmHg 88%

11 May, Tuesday

Time Temperature Precipitation Wind Pressure Humidity
00:00 +14°C° 0 mm 4 mps 749 mmHg 88%
01:00 +14°C° 0 mm 4 mps 749 mmHg 87%
02:00 +14°C° 0 mm 4 mps 748 mmHg 85%
03:00 +14°C° 0 mm 4 mps 748 mmHg 83%
04:00 +14°C° 0 mm 5 mps 748 mmHg 81%
05:00 +15°C° 0 mm 5 mps 748 mmHg 80%
06:00 +16°C° 0 mm 5 mps 748 mmHg 78%
07:00 +17°C° 0 mm 5 mps 748 mmHg 77%
08:00 +19°C° 0 mm 6 mps 747 mmHg 72%
09:00 +21°C° 0 mm 6 mps 747 mmHg 66%
10:00 +22°C° 0 mm 6 mps 747 mmHg 61%
11:00 +23°C° 0 mm 6 mps 747 mmHg 60%
12:00 +23°C° 0 mm 6 mps 747 mmHg 59%
13:00 +24°C° 0 mm 6 mps 747 mmHg 58%
14:00 +25°C° 0 mm 5 mps 747 mmHg 60%
15:00 +25°C° 0 mm 5 mps 747 mmHg 62%
16:00 +26°C° 0 mm 5 mps 747 mmHg 63%
17:00 +23°C° 0 mm 4 mps 747 mmHg 68%
18:00 +22°C° 0 mm 3 mps 746 mmHg 72%
19:00 +20°C° 0 mm 3 mps 746 mmHg 77%
20:00 +19°C° 0 mm 3 mps 746 mmHg 79%
21:00 +18°C° 0 mm 3 mps 746 mmHg 80%
22:00 +17°C° 0 mm 3 mps 746 mmHg 82%
23:00 +16°C° 0 mm 3 mps 746 mmHg 83%

12 May, Wednesday

Time Temperature Precipitation Wind Pressure Humidity
00:00 +16°C° 0 mm 3 mps 746 mmHg 84%
01:00 +14°C° 0 mm 3 mps 746 mmHg 85%
02:00 +14°C° 0 mm 3 mps 746 mmHg 86%
03:00 +14°C° 0 mm 3 mps 746 mmHg 86%
04:00 +14°C° 0 mm 4 mps 746 mmHg 86%
05:00 +15°C° 0 mm 4 mps 746 mmHg 83%
06:00 +17°C° 0 mm 4 mps 746 mmHg 80%
07:00 +19°C° 0 mm 4 mps 746 mmHg 76%
08:00 +20°C° 0 mm 3 mps 746 mmHg 71%
09:00 +21°C° 0 mm 3 mps 746 mmHg 67%
10:00 +24°C° 0 mm 2 mps 746 mmHg 62%
11:00 +24°C° 0.2 mm 2 mps 746 mmHg 62%
12:00 +24°C° 0.2 mm 2 mps 746 mmHg 62%
13:00 +25°C° 0.2 mm 2 mps 746 mmHg 62%
14:00 +22°C° 0.9 mm 3 mps 746 mmHg 69%
15:00 +20°C° 0.9 mm 4 mps 746 mmHg 76%
16:00 +19°C° 0.9 mm 5 mps 746 mmHg 83%
17:00 +16°C° 0.5 mm 5 mps 746 mmHg 86%
18:00 +15°C° 0.5 mm 5 mps 746 mmHg 90%
19:00 +13°C° 0.5 mm 5 mps 747 mmHg 93%
20:00 +13°C° 0.1 mm 5 mps 747 mmHg 94%
21:00 +13°C° 0.1 mm 4 mps 747 mmHg 95%
22:00 +12°C° 0.1 mm 3 mps 747 mmHg 95%
23:00 +12°C° 0 mm 3 mps 747 mmHg 95%

13 May, Thursday

Time Temperature Precipitation Wind Pressure Humidity
00:00 +13°C° 0 mm 2 mps 746 mmHg 95%
01:00 +13°C° 0 mm 2 mps 746 mmHg 95%
02:00 +12°C° 0 mm 2 mps 746 mmHg 95%
03:00 +12°C° 0 mm 2 mps 747 mmHg 94%
04:00 +10°C° 0 mm 2 mps 747 mmHg 93%
05:00 +11°C° 0 mm 3 mps 747 mmHg 90%
06:00 +11°C° 0 mm 3 mps 747 mmHg 87%
07:00 +11°C° 0 mm 3 mps 747 mmHg 85%
08:00 +13°C° 0 mm 3 mps 747 mmHg 77%
09:00 +14°C° 0 mm 3 mps 747 mmHg 70%
10:00 +17°C° 0 mm 3 mps 747 mmHg 63%
11:00 +17°C° 0 mm 3 mps 746 mmHg 60%
12:00 +17°C° 0 mm 3 mps 746 mmHg 57%
13:00 +18°C° 0 mm 3 mps 746 mmHg 55%
14:00 +17°C° 0 mm 3 mps 746 mmHg 60%
15:00 +17°C° 0 mm 3 mps 746 mmHg 65%
16:00 +15°C° 0 mm 4 mps 746 mmHg 70%
17:00 +14°C° 0 mm 3 mps 746 mmHg 73%
18:00 +14°C° 0 mm 2 mps 746 mmHg 76%
19:00 +14°C° 0 mm 2 mps 747 mmHg 80%
20:00 +13°C° 0 mm 1 mps 747 mmHg 82%
21:00 +12°C° 0 mm 1 mps 747 mmHg 85%
22:00 +11°C° 0 mm 1 mps 747 mmHg 87%
23:00 +11°C° 0 mm 1 mps 747 mmHg 89%
Show more